This is the latest recevied weather packets stored in our database for station/object PY1TCM-13. If no packets are shown the sender has not sent any weather packets the latest 10 day(s).
| Time | Temp. | Humidity | Pressure | Rain* | Wind** | Luminosity | Snow |
|---|---|---|---|---|---|---|---|
| 1788155029 | 69° F | 85% | 760.2 mmHg | - | - | - | - |
| 1788154429 | 68° F | 87% | 760.2 mmHg | - | - | - | - |
| 1788153829 | 69° F | 87% | 760.3 mmHg | - | - | - | - |
| 1788153229 | 69° F | 85% | 760.4 mmHg | - | - | - | - |
| 1788152629 | 71° F | 80% | 761 mmHg | - | - | - | - |
| 1788152031 | 71° F | 81% | 760.6 mmHg | - | - | - | - |
| 1788151429 | 72° F | 77% | 760.3 mmHg | - | - | - | - |
| 1788150831 | 71° F | 79% | 760.5 mmHg | - | - | - | - |
| 1788150229 | 70° F | 81% | 760.6 mmHg | - | - | - | - |
| 1788149629 | 69° F | 83% | 760.8 mmHg | - | - | - | - |
| 1788149029 | 70° F | 82% | 760.9 mmHg | - | - | - | - |
| 1788148429 | 71° F | 79% | 760.9 mmHg | - | - | - | - |
| 1788147829 | 70° F | 82% | 761.1 mmHg | - | - | - | - |
| 1788147229 | 70° F | 80% | 761 mmHg | - | - | - | - |
| 1788146629 | 70° F | 79% | 761.2 mmHg | - | - | - | - |
| 1788146029 | 73° F | 73% | 761.2 mmHg | - | - | - | - |
| 1788145429 | 72° F | 76% | 761.2 mmHg | - | - | - | - |
| 1788144829 | 71° F | 79% | 761.3 mmHg | - | - | - | - |
| 1788144237 | 70° F | 80% | 761.2 mmHg | - | - | - | - |
| 1788143629 | 69° F | 83% | 761.2 mmHg | - | - | - | - |
| 1788143029 | 69° F | 83% | 760.9 mmHg | - | - | - | - |
| 1788142429 | 69° F | 83% | 760.7 mmHg | - | - | - | - |
| 1788141829 | 69° F | 82% | 760.3 mmHg | - | - | - | - |
| 1788141229 | 70° F | 79% | 760.3 mmHg | - | - | - | - |
| 1788140629 | 69° F | 80% | 760.2 mmHg | - | - | - | - |
* Rain since midnight (hover to see other rain measurements)
** Current wind speed in m/s (hover to see current wind gust speed)